Home > Time Zones > World Clock > Weather > Spain > Palma > Past weeks

Flag for Spain Weather past 2 weeks in Palma, Majorca, Spain

Now
46 °F

Passing clouds.


Feels Like: 43 °F
Forecast: 46 / 55 °F
Wind: 7 mph from East

Location: Palma De Mallorca / Son San Juan

Current Time: Jan 28, 2015 at 12:19:03 AM

Latest Report: Jan 28, 2015 at 12:00 AM


Visibility: N/A

Pressure: 30.15 "Hg

Humidity: 93%

Dew point: 45 °F

Location of PalmaLocation

Historic Weather in Palma — Graph

°F

Palma temperature yesterday

Maximum temperature yesterday: 59 °F (at 12:00 PM)
Minimum temperature yesterday: 41 °F (at 12:00 AM)
Average temperature yesterday: 51 °F

Past Weeks' High & Low Weather Summary

 TemperatureHumidityPressure
High68 °F (Jan 14, 3:00 PM)100% (Jan 12, 11:00 PM)30.48 "Hg (Jan 12, 11:00 PM)
Low30 °F (Jan 18, 5:30 AM)32% (Jan 25, 5:30 AM)29.71 "Hg (Jan 19, 3:00 PM)
Average48 °F80%30.03 "Hg
* Reported Jan 12 11:00 PM — Jan 27 11:00 PM, Palma, Weather by CustomWeather, © 2014

Note: Actual official high and low records may vary slightly from our data, if they occured in-between our weather recording intervals... More about our weather records

Advertising

Palma weather history for previous 24 hours

 ConditionsComfort  
Time TempWeatherWind HumidityBarometerVisibility
11:00 PM
Jan 27
48 °FPassing clouds.No wind87%30.15 "HgN/A
10:30 PM48 °FPassing clouds.2 mph87%30.15 "HgN/A
10:00 PM48 °FPassing clouds.No wind87%30.12 "HgN/A
9:30 PM48 °FPassing clouds.1 mph87%30.12 "HgN/A
9:00 PM52 °FPassing clouds.3 mph82%30.12 "HgN/A
8:30 PM54 °FPassing clouds.6 mph77%30.12 "HgN/A
8:00 PM52 °FPassing clouds.5 mph82%30.12 "HgN/A
7:30 PM54 °FPassing clouds.7 mph77%30.12 "HgN/A
7:00 PM52 °FPassing clouds.9 mph82%30.12 "HgN/A
6:30 PM54 °FPassing clouds.9 mph77%30.12 "HgN/A
6:00 PM55 °FPassing clouds.7 mph72%30.12 "HgN/A
5:30 PM55 °FPassing clouds.8 mph67%30.12 "HgN/A
5:00 PM57 °FPassing clouds.8 mph63%30.12 "HgN/A
4:30 PM59 °FPassing clouds.12 mph63%30.12 "HgN/A
4:00 PM59 °FPassing clouds.12 mph63%30.12 "HgN/A
3:30 PM59 °FPassing clouds.12 mph59%30.12 "HgN/A
3:00 PM57 °FScattered clouds.12 mph63%30.15 "HgN/A
2:30 PM57 °FPassing clouds.14 mph63%30.15 "HgN/A
2:00 PM59 °FPassing clouds.14 mph63%30.18 "HgN/A
1:30 PM59 °FPassing clouds.12 mph59%30.18 "HgN/A
1:00 PM59 °FPassing clouds.15 mph59%30.18 "HgN/A
12:30 PM59 °FPassing clouds.10 mph59%30.21 "HgN/A
12:00 PM59 °FPassing clouds.12 mph59%30.21 "HgN/A
11:30 AM57 °FPassing clouds.13 mph63%30.21 "HgN/A
11:00 AM57 °FPassing clouds.10 mph63%30.21 "HgN/A
10:30 AM55 °FPassing clouds.12 mph67%30.24 "HgN/A
10:00 AM55 °FPassing clouds.9 mph67%30.24 "HgN/A
9:30 AM54 °FPassing clouds.7 mph72%30.24 "HgN/A
9:00 AM52 °FPassing clouds.5 mph72%30.27 "HgN/A
8:30 AM46 °FPassing clouds.7 mph82%30.24 "HgN/A
8:00 AM46 °FPassing clouds.2 mph82%30.24 "HgN/A
7:30 AM48 °FPassing clouds.6 mph82%30.24 "HgN/A
7:00 AM48 °FPassing clouds.7 mph82%30.24 "HgN/A
6:30 AM45 °FPassing clouds.7 mph93%30.24 "HgN/A
6:00 AM43 °FPassing clouds.No wind93%30.24 "HgN/A
5:30 AM43 °FPassing clouds.No wind93%30.27 "HgN/A
5:00 AM43 °FPassing clouds.No wind93%30.27 "HgN/A
4:30 AM43 °FPassing clouds.No wind93%30.27 "HgN/A
3:30 AM43 °FPassing clouds.No wind93%30.30 "HgN/A
3:00 AM43 °FPassing clouds.No wind93%30.30 "HgN/A
2:30 AM41 °FPassing clouds.No wind100%30.30 "HgN/A
2:00 AM41 °FPassing clouds.1 mph93%30.33 "HgN/A
1:30 AM41 °FPassing clouds.1 mph93%30.33 "HgN/A
1:00 AM41 °FPassing clouds.1 mph93%30.33 "HgN/A
12:30 AM41 °FClear.No wind93%30.33 "Hg10 mi
12:00 AM41 °FClear.No wind93%30.33 "Hg10 mi
Weather by CustomWeather, © 2014

See weather overviewHow to use our weather pages